Location: Branche des Alpilles
(43.6087°N, 4.6976°E)
Time: 11:58:36
(UTC+00:00)

Envisat - Visible Passes

Search period start: 28 September 2021 00:00
Search period end: 08 October 2021 00:00
Orbit: 764 x 766 km, 98.2° (Epoch: 28 September)

Date Brightness Start Highest point End Pass type
(mag) Time Alt. Az. Time Alt. Az. Time Alt. Az.
28 Sep 5.6 03:49:14 10° NE 03:53:00 21° E 03:56:45 10° SE visible
29 Sep 3.2 04:50:24 10° NNE 04:55:31 77° ESE 05:00:35 10° S visible
30 Sep 4.7 04:13:54 10° NNE 04:18:32 35° E 04:23:09 10° SSE visible
01 Oct 5.9 03:38:13 10° NE 03:41:22 16° E 03:44:29 10° SE visible
02 Oct 3.6 04:38:56 10° NNE 04:43:59 60° E 04:48:59 10° S visible
03 Oct 5.1 04:02:36 10° NE 04:06:57 28° E 04:11:16 10° SSE visible
04 Oct 6.1 03:27:31 10° ENE 03:29:43 13° E 03:31:53 10° ESE visible
04 Oct 3.0 05:04:14 10° N 05:09:20 80° WNW 05:14:24 10° SSW visible
05 Oct 4.1 04:27:31 10° NNE 04:32:26 47° E 04:37:19 10° S visible
06 Oct 5.5 03:51:25 10° NE 03:55:20 22° E 03:59:15 10° SE visible
07 Oct 3.1 04:52:42 10° NNE 04:57:49 82° ESE 05:02:54 10° SSW visible
